Temp
17 17 18 18 17 18 18 18 18 18 19 19 19 19 20 20 20 20 21 21 21 20 20 20 19 18 18 18 18 18 13 12 15 16 19 19 19 20 20 19 19 20 21 21 20
17 17 17 18 18 18 18 18 18 18 19 19 19 19 19 20 20 21 21 21 21 20 20 20 19 18 18 18 17 16 11 14 15 17 19 19 19 20 19 19 18 20 20 21 20
17 17 17 18 18 18 18 18 18 18 18 19 19 19 19 19 20 22 22 21 21 20 19 19 18 18 17 17 17 14 13 14 18 19 19 19 18 20 17 15 19 20 22 21 20
17 17 17 17 17 18 18 18 18 18 18 18 19 19 19 19 18 21 21 21 21 20 19 19 18 17 16 15 18 15 16 17 19 20 19 17 19 17 18 20 21 21 21 21 21
17 17 17 17 18 18 18 18 18 18 18 18 18 18 18 18 20 21 21 21 20 20 20 19 18 18 15 15 17 14 15 18 19 18 18 18 16 15 18 21 21 20 20 20 20
16 16 16 17 17 18 18 18 18 18 18 18 18 18 18 15 20 21 21 20 20 20 19 18 18 19 17 17 15 16 16 16 17 17 18 16 17 16 20 22 22 21 22 21 20
15 15 16 16 16 17 17 18 18 18 18 18 18 17 17 19 20 20 20 20 20 19 18 18 18 18 17 16 17 17 14 13 14 16 14 16 13 12 23 21 22 23 23 23 22
14 15 15 16 16 16 17 17 18 18 18 18 17 17 16 19 20 20 20 20 18 17 17 17 17 17 17 16 15 14 14 13 16 13 16 16 15 19 22 20 22 23 23 23 23
13 14 14 15 15 16 16 17 17 18 17 17 17 16 16 19 19 19 19 18 17 17 16 16 16 16 17 12 12 11 11 11 12 14 15 13 14 15 19 20 20 21 22 22 22
12 12 13 13 14 15 16 17 17 17 17 16 15 14 17 19 19 19 18 16 15 15 15 15 15 12 9 10 12 11 10 10 12 16 11 12 11 13 20 15 17 18 19 20 21
11 11 12 12 13 14 15 16 15 15 14 17 17 17 19 19 18 18 17 15 14 15 11 13 10 11 14 11 14 13 11 10 12 14 13 12 13 14 16 16 16 16 16 17 19
10 11 11 12 12 13 13 14 12 11 11 16 17 15 18 16 16 15 14 15 14 11 11 10 9 12 13 12 11 10 11 12 14 14 12 12 13 13 13 14 16 17 17 17 18
10 10 11 11 12 12 12 11 11 10 7 14 15 13 15 14 14 15 14 14 12 10 10 13 13 11 11 11 12 10 11 13 13 12 10 10 13 13 12 13 15 17 17 18 19
11 11 11 11 11 11 12 11 12 9 7 10 12 13 13 14 13 12 12 13 12 11 10 10 12 12 10 10 11 13 11 12 11 11 12 13 14 15 15 15 14 15 17 18 21
10 10 10 10 11 11 10 11 12 11 10 13 12 12 12 13 11 11 11 12 11 11 11 12 12 11 10 12 10 12 13 11 11 9 9 10 8 14 13 14 13 13 17 22 22
9 10 9 9 9 10 10 10 11 10 11 12 12 11 11 11 11 10 10 11 11 10 9 9 11 11 11 11 9 12 12 10 6 8 9 10 11 14 12 14 15 14 20 21 20
9 8 9 8 9 9 9 10 9 10 12 13 13 11 11 11 10 9 9 9 10 12 10 11 10 10 12 12 10 12 10 8 8 6 10 10 9 17 16 17 13 16 17 19 19
8 8 8 8 8 8 9 8 8 10 10 12 12 11 11 10 11 9 8 9 8 10 9 10 13 10 9 11 11 8 9 7 7 9 14 6 10 16 15 14 15 16 16 16 19
7 8 7 7 8 8 8 8 10 11 10 12 11 11 10 10 11 10 7 8 10 9 11 9 10 10 9 10 12 9 9 12 9 2 5 13 12 14 12 15 15 13 14 16 18
6 6 6 7 7 7 7 8 9 10 11 11 10 11 9 10 11 10 10 9 10 8 10 12 10 11 9 10 10 10 10 9 6 8 9 11 13 14 14 16 14 11 13 17 18
5 5 6 7 7 6 6 8 9 10 11 10 10 10 9 9 10 10 10 10 9 10 9 9 8 10 10 9 11 8 8 9 9 8 11 11 11 15 14 12 12 11 14 16 16
3 4 6 6 5 5 6 8 9 9 10 10 9 10 10 10 10 10 9 10 12 10 9 8 7 7 8 8 8 8 9 9 8 10 10 12 12 15 15 14 11 12 13 14 15
3 4 5 5 6 6 7 7 8 8 8 8 8 8 9 8 8 9 10 11 11 9 8 8 7 8 7 7 5 5 8 8 10 9 9 9 11 14 15 15 15 13 14 14 15
1 2 3 4 5 5 7 7 7 8 7 8 8 8 8 7 8 7 7 8 8 8 8 7 7 7 7 7 9 8 8 9 9 8 9 10 11 12 13 14 14 15 12 9 5
0 1 2 1 4 4 5 5 5 6 7 8 7 7 7 6 5 5 6 5 4 5 4 6 6 6 6 6 6 6 6 6 8 10 9 10 10 11 12 12 7 6 3 1 0
-1 -1 -0 -1 2 2 4 5 4 5 6 6 6 6 6 5 5 4 2 3 3 3 3 4 3 5 5 5 6 5 5 5 5 5 5 6 7 6 -1 -2 0 -1 -0 -0 -0
-2 -2 -2 0 -1 0 2 3 4 3 4 4 2 2 3 2 -1 -1 -0 1 2 2 1 2 3 2 3 4 4 3 5 6 8 7 4 3 -1 -2 -2 -2 -2 -3 -2 -1 -1
Height
1558 1557 1557 1556 1555 1554 1553 1551 1550 1549 1547 1546 1544 1542 1541 1539 1538 1536 1534 1535 1534 1534 1535 1535 1536 1536 1537 1538 1539 1539 1548 1552 1539 1534 1524 1519 1520 1518 1516 1515 1513 1512 1509 1508 1507
1556 1556 1555 1555 1554 1553 1551 1550 1549 1548 1546 1545 1543 1541 1540 1538 1535 1532 1532 1531 1532 1533 1534 1534 1535 1535 1536 1536 1537 1538 1549 1538 1525 1522 1520 1519 1518 1516 1515 1512 1510 1509 1506 1505 1505
1555 1554 1553 1552 1552 1551 1550 1549 1547 1546 1545 1544 1542 1540 1539 1537 1534 1530 1529 1530 1531 1532 1533 1534 1534 1536 1536 1536 1535 1534 1536 1525 1520 1519 1519 1517 1514 1513 1511 1508 1503 1504 1502 1502 1500
1552 1552 1551 1550 1549 1548 1547 1546 1546 1545 1543 1542 1541 1539 1537 1536 1539 1530 1529 1529 1529 1529 1531 1532 1533 1534 1535 1534 1531 1533 1525 1523 1517 1518 1517 1516 1511 1507 1507 1494 1496 1497 1498 1497 1496
1549 1548 1548 1547 1546 1545 1544 1543 1542 1541 1540 1540 1539 1538 1536 1534 1529 1528 1527 1527 1526 1526 1526 1528 1529 1530 1531 1529 1528 1527 1521 1519 1515 1517 1516 1515 1507 1506 1498 1488 1491 1491 1491 1489 1489
1546 1545 1544 1543 1542 1542 1541 1539 1538 1537 1537 1536 1535 1534 1534 1531 1525 1525 1524 1525 1525 1524 1524 1524 1524 1526 1527 1526 1526 1521 1518 1514 1510 1510 1512 1512 1500 1505 1486 1487 1485 1485 1483 1483 1482
1543 1542 1541 1540 1538 1537 1536 1535 1534 1533 1532 1532 1531 1530 1528 1522 1522 1523 1522 1521 1520 1521 1523 1524 1526 1526 1525 1522 1520 1519 1519 1512 1502 1502 1503 1503 1504 1497 1480 1484 1481 1480 1478 1477 1476
1541 1540 1538 1537 1535 1534 1532 1531 1529 1528 1527 1527 1527 1526 1520 1516 1516 1515 1517 1516 1517 1517 1519 1521 1523 1526 1525 1522 1520 1522 1520 1523 1497 1500 1498 1500 1503 1472 1478 1479 1475 1474 1474 1473 1471
1539 1537 1536 1534 1532 1530 1528 1526 1524 1522 1522 1522 1523 1523 1517 1510 1508 1510 1510 1511 1513 1514 1516 1519 1522 1522 1522 1525 1531 1528 1530 1525 1511 1493 1495 1498 1495 1472 1474 1474 1473 1469 1468 1466 1462
1537 1536 1534 1532 1529 1527 1524 1521 1518 1517 1516 1517 1517 1523 1511 1505 1505 1505 1506 1508 1510 1512 1515 1516 1518 1521 1524 1527 1535 1527 1530 1522 1515 1493 1495 1496 1488 1477 1470 1471 1468 1465 1461 1457 1452
1536 1534 1533 1530 1528 1525 1522 1519 1519 1516 1512 1509 1507 1504 1502 1502 1504 1501 1502 1505 1508 1510 1514 1514 1518 1521 1507 1509 1503 1512 1517 1515 1503 1492 1495 1488 1481 1478 1472 1467 1461 1455 1449 1442 1439
1535 1533 1532 1530 1528 1525 1523 1520 1520 1521 1511 1504 1500 1499 1498 1498 1499 1500 1502 1505 1506 1508 1510 1515 1512 1498 1500 1505 1510 1513 1512 1507 1490 1488 1492 1483 1470 1469 1467 1459 1449 1442 1439 1431 1426
1533 1532 1531 1529 1527 1525 1524 1523 1520 1517 1514 1497 1492 1491 1493 1494 1494 1496 1499 1499 1501 1507 1505 1498 1496 1496 1501 1503 1508 1505 1509 1495 1494 1490 1485 1479 1452 1457 1448 1444 1440 1430 1426 1425 1421
1530 1530 1528 1528 1529 1524 1522 1522 1520 1517 1517 1499 1488 1488 1489 1490 1490 1490 1490 1497 1500 1500 1504 1499 1487 1491 1498 1501 1499 1496 1493 1493 1494 1498 1495 1479 1442 1441 1441 1435 1429 1424 1417 1416 1414
1526 1526 1526 1526 1526 1525 1525 1521 1521 1519 1529 1491 1489 1488 1488 1491 1490 1490 1490 1490 1494 1494 1498 1490 1486 1492 1496 1486 1490 1486 1484 1489 1492 1498 1497 1489 1496 1433 1432 1432 1425 1416 1414 1409 1409
1520 1521 1522 1523 1523 1523 1522 1522 1522 1527 1515 1490 1488 1489 1489 1490 1489 1488 1491 1492 1491 1494 1491 1488 1483 1483 1482 1481 1482 1482 1485 1489 1501 1501 1496 1480 1485 1411 1435 1425 1418 1413 1412 1411 1410
1516 1516 1516 1519 1521 1521 1521 1522 1530 1521 1494 1489 1488 1490 1490 1490 1489 1489 1490 1494 1493 1492 1494 1480 1481 1472 1475 1482 1482 1484 1491 1511 1507 1516 1484 1462 1478 1410 1417 1414 1413 1410 1412 1413 1409
1512 1512 1510 1515 1519 1518 1520 1522 1524 1500 1496 1486 1487 1489 1491 1488 1484 1488 1490 1490 1488 1487 1496 1490 1476 1470 1467 1471 1475 1484 1487 1502 1510 1488 1456 1479 1461 1409 1412 1408 1408 1407 1407 1407 1404
1506 1507 1506 1506 1511 1514 1516 1514 1489 1487 1484 1484 1485 1487 1488 1485 1485 1488 1492 1485 1477 1481 1488 1493 1478 1465 1460 1459 1459 1474 1481 1464 1479 1502 1496 1442 1430 1408 1406 1405 1404 1405 1400 1399 1398
1502 1501 1500 1504 1506 1507 1510 1488 1484 1478 1480 1482 1485 1480 1486 1482 1480 1486 1484 1478 1475 1471 1473 1474 1479 1462 1466 1461 1459 1461 1458 1473 1486 1482 1471 1450 1432 1418 1405 1401 1402 1399 1396 1393 1397
1497 1499 1492 1495 1501 1501 1489 1481 1480 1480 1483 1485 1478 1474 1474 1476 1477 1477 1477 1475 1474 1472 1470 1475 1481 1464 1463 1468 1459 1467 1465 1457 1456 1460 1447 1443 1434 1397 1403 1401 1399 1398 1396 1397 1397
1492 1495 1490 1489 1493 1490 1482 1476 1475 1477 1478 1478 1476 1471 1468 1470 1469 1471 1470 1466 1466 1469 1470 1473 1476 1470 1455 1453 1453 1456 1456 1455 1455 1441 1432 1425 1416 1402 1386 1395 1398 1394 1396 1399 1399
1490 1488 1486 1485 1484 1478 1475 1474 1473 1472 1474 1471 1470 1468 1466 1467 1471 1461 1461 1460 1459 1463 1466 1464 1466 1460 1457 1451 1449 1455 1446 1442 1437 1437 1432 1426 1406 1399 1394 1387 1388 1393 1394 1395 1393
1489 1487 1485 1483 1478 1476 1471 1466 1466 1466 1465 1467 1466 1466 1464 1462 1462 1459 1461 1461 1458 1457 1461 1463 1458 1457 1447 1448 1441 1441 1439 1432 1434 1430 1411 1406 1400 1401 1398 1390 1382 1395 1394 1396 1393
1487 1483 1481 1479 1472 1473 1472 1468 1464 1459 1461 1462 1460 1460 1460 1461 1461 1459 1457 1458 1456 1454 1457 1459 1449 1453 1446 1444 1444 1441 1441 1436 1424 1412 1409 1397 1395 1397 1397 1394 1398 1396 1399 1400 1393
1483 1481 1480 1476 1472 1471 1468 1462 1462 1458 1464 1459 1458 1458 1460 1460 1457 1454 1463 1460 1463 1459 1459 1460 1453 1450 1444 1437 1438 1437 1434 1427 1426 1420 1411 1403 1395 1406 1413 1410 1407 1411 1406 1403 1402
1479 1480 1480 1472 1471 1472 1465 1461 1458 1460 1456 1457 1458 1459 1459 1461 1463 1460 1462 1465 1465 1464 1457 1459 1455 1452 1439 1438 1438 1434 1423 1417 1406 1407 1409 1407 1427 1424 1419 1416 1416 1413 1410 1407 1405
Wind_Speed
7 7 8 8 8 8 8 8 8 8 8 9 9 10 10 10 11 13 15 10 6 8 6 5 5 6 5 3 4 2 3 3 5 5 4 1 3 4 6 9 8 10 19 14 11
8 8 9 9 9 9 9 9 9 10 10 10 10 12 13 14 16 20 13 11 10 8 7 6 7 6 3 3 5 4 3 8 6 4 3 4 6 14 6 10 10 18 23 24 24
10 10 10 10 11 11 12 11 11 11 11 11 12 13 14 15 18 2 7 3 12 10 9 8 7 6 4 4 7 6 6 5 10 14 11 5 7 13 6 8 22 20 27 26 29
13 13 13 14 13 13 13 14 14 14 13 13 13 13 15 14 5 1 10 13 8 14 13 11 10 5 4 5 9 3 14 14 11 15 10 6 9 8 15 37 35 31 27 27 28
15 15 15 16 16 16 16 16 16 16 16 15 15 15 16 9 17 19 17 12 9 13 18 17 16 9 5 6 4 6 6 17 28 24 24 20 22 13 24 48 42 37 33 34 33
15 15 15 16 17 17 18 18 19 19 18 17 16 16 17 10 14 11 11 12 13 15 18 21 11 16 6 6 7 3 9 16 17 19 17 8 30 4 35 38 34 30 26 26 32
14 14 15 16 17 18 18 18 20 20 21 20 19 18 21 29 21 24 24 22 19 18 19 20 21 8 2 4 7 6 8 9 8 10 8 12 12 11 40 30 30 30 31 31 32
12 13 14 16 17 18 19 19 21 21 20 19 19 19 17 23 24 27 25 25 20 17 18 17 14 14 11 9 5 4 1 5 2 7 4 10 12 23 28 24 28 29 28 28 32
10 11 12 14 15 18 18 19 19 20 20 19 16 14 11 19 21 23 23 22 17 18 15 12 7 8 8 2 5 3 6 8 12 13 6 8 10 14 11 13 23 28 33 38 46
10 11 12 13 14 17 17 17 16 17 15 10 13 5 18 15 13 14 15 17 14 9 8 9 8 3 2 4 8 9 5 6 7 7 5 6 15 12 36 15 27 36 44 51 53
13 14 13 14 15 16 15 11 5 5 6 10 6 9 7 10 14 12 12 14 10 8 6 6 4 9 21 16 13 4 7 9 8 11 3 13 17 15 26 30 29 34 43 48 53
16 16 15 15 15 14 14 8 8 7 12 18 26 29 30 16 6 14 11 10 8 7 6 1 10 18 7 4 7 8 15 18 18 17 6 17 23 15 13 19 37 40 39 44 48
17 17 16 14 14 10 14 17 14 11 5 14 19 15 22 20 14 9 12 9 5 7 10 16 8 12 8 8 7 11 10 20 18 6 6 12 21 15 12 16 34 46 41 46 48
17 16 18 16 11 11 9 16 15 13 3 7 3 3 4 7 4 10 17 7 3 9 6 9 8 12 7 6 13 19 11 13 10 3 10 3 19 5 11 16 15 28 39 40 44
20 22 20 16 13 10 9 11 11 8 6 4 2 2 5 5 4 1 12 8 5 6 5 9 4 4 6 14 9 12 4 6 3 4 5 5 4 2 6 9 13 11 27 29 32
20 20 18 18 16 9 5 7 8 3 9 4 1 0 2 1 0 3 3 4 2 2 4 10 2 6 8 5 9 2 3 2 4 2 7 10 8 6 5 7 4 5 21 26 28
16 15 17 17 13 7 6 4 4 6 4 3 1 1 1 3 2 4 4 4 5 1 5 2 5 3 6 4 1 3 5 4 3 1 11 7 5 22 10 11 9 11 20 21 30
16 16 17 20 16 12 6 3 9 5 7 3 1 1 5 7 5 4 3 3 5 2 2 3 16 9 7 9 8 8 9 6 7 8 17 6 10 16 8 9 9 8 10 21 37
20 19 20 20 19 20 10 7 8 9 8 5 5 3 4 3 3 3 6 4 6 13 9 4 10 2 5 5 9 5 6 6 3 0 2 12 17 16 7 5 1 9 16 24 35
19 18 23 18 19 23 8 16 8 9 4 2 6 5 5 5 2 3 3 2 4 10 2 3 9 5 3 1 4 6 1 1 1 4 11 8 17 16 12 15 12 9 15 33 37
14 7 8 14 21 14 11 8 9 21 14 5 7 11 8 6 7 8 6 3 4 1 8 3 1 9 3 5 17 1 4 5 1 6 15 17 10 26 20 7 9 9 21 31 37
8 4 7 20 9 6 15 7 14 18 13 16 8 18 15 13 14 7 8 10 6 7 5 9 5 6 16 6 5 5 8 5 6 9 10 16 16 21 30 18 10 16 30 34 31
4 7 7 20 7 11 8 11 19 21 11 4 8 8 7 13 11 17 20 19 17 6 6 4 4 10 6 7 2 6 13 15 19 18 22 22 21 16 23 26 26 18 23 25 27
2 2 8 19 23 8 13 16 15 15 15 18 16 15 15 16 15 9 13 8 7 6 16 8 9 17 14 11 18 22 14 17 16 14 22 21 25 16 22 28 28 24 21 24 27
7 4 4 3 11 14 17 11 16 14 12 6 4 11 13 8 9 13 15 4 4 8 3 3 14 15 19 15 17 20 24 28 30 27 24 23 24 23 24 21 17 27 28 30 30
4 3 5 8 13 6 10 20 20 22 15 19 18 16 13 11 8 3 4 3 5 2 4 2 9 16 21 23 18 18 16 17 14 15 22 25 30 18 23 32 32 26 27 29 30
6 11 5 7 2 2 7 9 9 7 4 8 5 4 8 4 4 6 10 13 12 9 5 5 5 3 19 18 12 14 19 18 21 14 11 9 7 14 17 19 19 22 29 29 28
Wind_Direction
313 317 320 324 326 327 327 330 334 337 338 338 337 336 335 329 313 293 277 265 252 231 240 222 209 209 211 215 203 174 58 255 251 184 249 259 231 253 256 247 230 225 241 256 264
301 306 310 311 310 310 311 313 313 316 318 320 322 321 323 324 316 304 285 253 236 228 232 228 211 199 207 208 196 158 148 230 219 224 234 276 240 269 260 252 240 250 253 258 263
295 297 298 299 300 300 300 300 300 300 302 306 310 313 315 320 321 325 47 346 245 235 227 218 213 210 230 220 206 188 213 220 257 247 277 264 266 265 230 263 252 248 274 267 258
290 293 295 294 293 293 293 293 292 291 293 296 298 302 305 308 297 250 309 311 268 231 225 218 214 195 207 213 225 227 246 243 264 272 280 262 282 255 230 266 277 280 282 270 260
286 289 289 288 288 289 288 286 284 285 286 288 291 294 299 284 265 285 289 281 256 237 231 223 217 208 191 210 234 224 245 257 266 270 272 277 268 259 269 283 284 280 276 269 262
286 287 288 288 288 286 285 284 283 282 282 282 285 288 287 261 272 282 281 273 260 246 236 224 226 229 268 228 197 281 273 274 279 269 255 228 272 259 274 283 287 281 279 275 269
288 288 289 290 289 289 288 286 283 280 278 276 274 272 271 263 275 278 275 273 264 254 244 241 234 221 239 290 265 285 310 310 233 257 231 215 289 225 270 275 279 282 285 286 279
295 296 295 295 295 293 292 288 284 282 279 277 271 264 257 275 270 268 263 257 254 246 243 247 245 249 260 277 335 341 324 319 325 138 236 166 257 269 273 263 270 278 283 283 288
316 314 311 307 303 298 298 292 290 285 279 272 265 241 262 260 257 261 254 248 250 244 238 242 227 220 251 78 9 319 247 223 306 206 181 186 243 267 293 245 266 277 283 283 286
326 330 335 329 323 316 313 304 293 286 276 261 235 228 243 243 255 259 251 236 233 220 214 194 188 180 42 112 232 230 228 248 238 290 189 226 249 272 284 276 265 277 283 284 284
322 326 334 334 338 337 337 329 309 283 256 223 224 216 250 245 245 250 237 212 190 175 174 193 144 199 223 208 236 180 223 240 256 258 292 261 264 262 270 279 273 270 273 273 278
317 319 328 332 338 344 351 18 356 307 301 261 254 245 249 253 250 228 214 176 177 196 129 105 220 221 232 206 209 234 259 266 271 265 247 268 268 272 259 255 263 269 269 271 277
300 305 319 322 331 338 349 358 344 332 268 276 253 258 257 250 238 240 211 203 166 175 202 226 227 218 208 232 250 231 238 258 264 303 240 282 275 247 251 254 255 265 264 273 277
290 290 299 308 311 330 342 346 342 338 313 273 242 235 223 169 208 221 193 198 213 227 214 247 238 220 197 213 214 266 231 261 264 339 278 15 298 171 253 260 254 259 271 274 283
283 286 288 288 284 306 318 335 338 347 303 262 212 209 175 181 138 10 195 187 217 199 170 248 181 175 197 230 167 246 217 234 209 206 324 200 269 209 169 259 261 263 267 276 287
279 285 284 278 278 279 298 346 334 41 249 303 168 360 123 261 175 131 161 189 172 245 228 255 284 179 218 224 188 108 91 84 65 110 266 193 198 307 159 221 268 262 285 294 308
273 270 263 270 275 265 219 41 331 223 348 276 293 182 288 214 254 193 163 186 194 293 260 251 220 226 175 240 123 140 77 310 317 95 244 157 192 255 280 253 221 284 312 328 342
279 275 259 256 257 235 213 80 229 199 248 324 295 105 217 172 227 187 140 232 242 125 288 241 285 183 172 192 188 187 170 174 220 262 279 106 252 270 235 260 275 289 323 338 348
279 274 268 244 234 232 199 221 227 206 190 218 313 263 223 248 184 176 214 246 221 181 220 220 269 267 203 159 155 173 188 225 253 144 324 268 272 286 245 258 19 308 322 327 342
271 272 262 253 233 214 233 243 236 203 160 188 202 201 218 182 182 184 224 208 237 194 162 301 287 191 35 336 271 187 136 108 308 206 247 249 272 265 278 274 281 294 320 320 324
254 262 241 211 218 199 226 230 257 258 254 234 255 244 228 206 214 242 226 264 247 44 146 39 220 265 39 220 253 263 254 221 269 203 254 257 244 266 273 222 242 297 309 307 304
204 239 223 196 187 221 237 221 240 254 250 248 262 250 250 265 264 238 221 248 232 189 197 196 222 223 256 225 231 167 249 243 241 249 238 256 252 267 271 268 262 278 287 290 290
227 242 230 204 234 229 241 248 247 254 247 235 233 224 217 249 266 254 263 255 252 259 249 162 239 277 283 287 334 212 237 238 247 256 257 261 262 249 282 288 278 273 278 278 293
258 286 227 224 233 251 248 247 249 252 246 244 253 257 262 268 268 270 266 293 340 296 299 332 252 255 264 282 292 284 271 276 256 259 259 256 269 268 277 281 293 305 347 13 41
204 238 248 237 237 249 255 270 272 270 233 221 254 243 262 262 262 265 273 307 313 336 353 210 260 267 278 288 283 283 289 287 275 266 255 262 272 281 275 284 355 356 23 27 21
215 241 301 294 300 300 246 247 260 268 271 270 263 271 274 261 262 255 15 255 253 1 9 297 283 283 272 282 281 285 282 267 281 289 281 283 285 334 20 10 3 30 23 13 3
236 259 297 257 281 279 260 265 265 347 255 266 344 296 273 308 5 333 295 269 256 265 245 251 256 250 272 275 297 282 261 277 278 319 331 317 29 9 13 6 349 18 8 360 349